Regional Weather Roundup
Issued by NWS

Home | Current Version | Previous Version | Text Only | Print | Product List | Glossary Off
Versions: 1 2 3 4 5 6 7 8 9 10 11 12 13 14 15 16 17 18 19 20 21 22 23 24 25 26 27 28 29 30 31 32 33 34 35 36 37 38 39 40 41 42 43 44 45 46 47 48 49 50

509
ASUS45 KBOI 082210
RWRID

IDAHO REGIONAL WEATHER ROUNDUP
NATIONAL WEATHER SERVICE BOISE ID
300 PM MST MON FEB 08 2016

NOTE: "FAIR" INDICATES FEW OR NO CLOUDS BELOW 12000 FEET
WITH NO SIGNIFICANT WEATHER AND/OR OBSTRUCTIONS TO VISIBILITY

IDZ012-014-082300-
SOUTHWEST IDAHO


CITY           SKY/WX    TMP DP  RH WIND       PRES   REMARKS
BOISE          SUNNY     44  35  70 S14       30.65F
CALDWELL       PTSUNNY   45  35  68 SE9       30.67F
MOUNTAIN HOME  MOSUNNY   41  34  75 SE13      30.66F
$$

IDZ016-017-082300-
SOUTHCENTRAL IDAHO


CITY           SKY/WX    TMP DP  RH WIND       PRES   REMARKS
BURLEY         MOSUNNY   35  29  78 NE9       30.62F WCI  28
JEROME         MOSUNNY   31  28  89 E10       30.64F WCI  22
TWIN FALLS     CLOUDY    32  30  92 NE7       30.63F WCI  26
$$

IDZ019>023-082300-
SOUTHEAST IDAHO


CITY           SKY/WX    TMP DP  RH WIND       PRES   REMARKS
IDAHO FALLS    CLOUDY    27  24  89 N6        30.67F WCI  20
POCATELLO      CLOUDY    30  26  85 NE6       30.68F WCI  24
REXBURG        CLOUDY    31  25  78 E5        30.65F WCI  26
$$

IDZ006-010-011-018-031-032-082300-
CENTRAL IDAHO MOUNTAINS


CITY           SKY/WX    TMP DP  RH WIND       PRES   REMARKS
MCCALL         SUNNY     35  26  69 S3        30.57F
HAILEY         MOSUNNY   34  27  75 CALM      30.63F
STANLEY          N/A     40  20  44 CALM      30.60F
SALMON         CLOUDY    34  19  55 CALM      30.65F
CHALLIS        SUNNY     28  17  63 NE5       30.63F WCI  23
$$

IDZ002-004-006-007-026-082300-
NORTHERN IDAHO


CITY           SKY/WX    TMP DP  RH WIND       PRES   REMARKS
LEWISTON       SUNNY     52  37  56 SW3       30.54F
LOWELL           N/A     51  39  63 N5        30.56F
COEUR D`ALENE  SUNNY     50  34  53 NE8       30.52F
MULLAN PASS    SUNNY     40  29  64 SW5       30.53F
$$




USA.gov is the U.S. government's official web portal to all federal, state and local government web resources and services.